Location: Jabiru
(12.6667°S, 132.8333°E)
Time: 04:17:40
(UTC+09:30)

Envisat - Pass Details

Date: 25 October 2019
Orbit: 764 x 766 km, 98.1° (Epoch: 21 November)

Event Time Altitude Azimuth Distance (km) Brightness Sun altitude
Rises 20:16:18 0° 195° (SSW) 3,243 6.7 -24.1°
Reaches altitude 10° 20:19:21 10° 214° (SW) 2,312 6.2 -24.8°
Maximum altitude 20:22:37 17° 254° (WSW) 1,848 5.8 -25.5°
Drops below altitude 10° 20:25:52 10° 294° (WNW) 2,300 6.0 -26.2°
Sets 20:28:55 0° 314° (NW) 3,219 6.6 -26.9°
